This is the latest recevied weather packets stored in our database for station/object KJ4YLO. If no packets are shown the sender has not sent any weather packets the latest 10 day(s).
| Time | Temp. | Humidity | Pressure | Rain* | Wind** | Luminosity | Snow |
|---|---|---|---|---|---|---|---|
| 1778142898 | 17.22° C | 99% | 1011.7 hPa | 1.27 mm | - | 0 W/m² | - |
| 1778142595 | 17.22° C | 99% | 1012 hPa | 3.05 mm | - | 0 W/m² | - |
| 1778142292 | 17.22° C | 99% | 1012 hPa | 3.56 mm | - | 0 W/m² | - |
| 1778141988 | 17.22° C | 99% | 1011.7 hPa | 1.27 mm | - | 0 W/m² | - |
| 1778141684 | 17.22° C | 99% | 1012.4 hPa | 1.27 mm | - | 0 W/m² | - |
| 1778141381 | 17.22° C | 99% | 1012 hPa | 0 mm | - | 0 W/m² | - |
| 1778141077 | 17.22° C | 99% | 1012.8 hPa | 4.83 mm | - | 0 W/m² | - |
| 1778140772 | 17.22° C | 99% | 1013.5 hPa | 7.11 mm | - | 0 W/m² | - |
| 1778140469 | 17.22° C | 99% | 1010.3 hPa | 6.1 mm | - | 0 W/m² | - |
| 1778140166 | 17.22° C | 99% | 1012.8 hPa | 4.83 mm | - | 0 W/m² | - |
| 1778139863 | 17.22° C | 99% | 1013.1 hPa | 1.78 mm | - | 0 W/m² | - |
| 1778139561 | 17.22° C | 99% | 1013.1 hPa | 1.27 mm | - | 0 W/m² | - |
| 1778139257 | 17.22° C | 99% | 1012.8 hPa | 1.27 mm | - | 0 W/m² | - |
| 1778138954 | 17.22° C | 99% | 1013.1 hPa | 1.78 mm | - | 0 W/m² | - |
| 1778138651 | 17.22° C | 99% | 1012.8 hPa | 6.6 mm | - | 0 W/m² | - |
| 1778138349 | 17.22° C | 99% | 1013.1 hPa | 7.87 mm | - | 0 W/m² | - |
| 1778138046 | 17.22° C | 99% | 1012.8 hPa | 6.1 mm | - | 0 W/m² | - |
| 1778137741 | 17.22° C | 99% | 1012.4 hPa | 7.11 mm | - | 0 W/m² | - |
| 1778137439 | 17.78° C | 99% | 1012.8 hPa | 10.92 mm | - | 0 W/m² | - |
| 1778137136 | 17.78° C | 99% | 1012.8 hPa | 12.7 mm | - | 0 W/m² | - |
| 1778136832 | 17.22° C | 99% | 1013.1 hPa | 10.16 mm | - | 0 W/m² | - |
| 1778136530 | 17.22° C | 99% | 1013.1 hPa | 7.87 mm | - | 0 W/m² | - |
| 1778136228 | 17.22° C | 99% | 1013.1 hPa | 7.87 mm | - | 0 W/m² | - |
| 1778135926 | 17.78° C | 99% | 1012.8 hPa | 3.05 mm | - | 0 W/m² | - |
| 1778135622 | 17.22° C | 99% | 1013.1 hPa | 3.05 mm | - | 0 W/m² | - |
* Rain latest hour (hover to see other rain measurements)
** Current wind speed in m/s (hover to see current wind gust speed)